Location: Spruce Knob
(38.6995°N, 79.5330°W)
Time: 17:31:07
(UTC-05:00)

Hubble Space Telescope - Pass Details

Date: 19 December 2023
Orbit: 516 x 520 km, 28.5° (Epoch: 21 February)

Event Time Altitude Azimuth Distance (km) Brightness Sun altitude
Exits shadow 06:21:06 - 227° (SW) 2,618 4.0 -13.3°
Reaches altitude 10° 06:24:07 10° 203° (SSW) 1,742 3.3 -12.7°
Maximum altitude 06:26:24 15° 168° (SSE) 1,466 3.4 -12.3°
Drops below altitude 10° 06:28:41 10° 133° (SE) 1,743 4.5 -11.9°
Sets 06:31:44 0° 109° (ESE) 2,630 6.5 -11.3°
